Wind_Speed
5 6 6 6 5 6 6 6 6 6 6 6 5 5 6 5 5 6 6 6 6 5 6 6 5 4 3 3 2 2 2 1 2 2 2 1 1 3 4 4 4 4 4
5 5 5 5 5 5 5 5 6 6 6 5 5 5 5 5 5 5 5 6 6 5 5 5 4 4 3 3 2 2 2 2 2 2 1 1 1 4 4 4 4 4 5
4 4 4 5 4 5 5 5 5 6 6 5 5 5 5 5 5 5 5 5 5 5 5 5 4 4 3 3 3 2 2 2 3 1 1 2 3 4 6 5 4 5 5
5 5 5 6 6 5 5 5 5 6 6 5 4 4 5 5 5 5 6 5 5 4 5 5 4 3 3 3 3 3 2 2 2 2 2 2 3 3 5 5 5 6 6
5 6 6 6 6 6 5 5 5 5 5 4 4 3 4 5 6 6 7 6 5 5 5 5 4 3 2 3 3 3 2 2 2 2 2 2 2 2 4 5 5 5 5
5 6 6 6 6 6 6 5 5 5 5 4 4 4 4 5 7 7 6 5 4 4 4 4 4 3 3 3 3 3 3 3 3 2 2 2 2 2 3 4 5 5 4
7 7 7 6 6 6 5 4 4 4 4 5 5 5 5 5 6 5 5 5 4 3 3 3 2 2 2 2 2 2 2 2 2 2 2 2 2 2 2 3 3 4 4
7 7 6 6 6 6 5 4 4 4 5 5 5 4 4 4 5 5 5 5 3 3 3 3 2 2 2 2 2 2 2 2 1 2 2 1 1 1 2 3 3 3 3
6 6 5 5 5 5 5 4 4 4 4 5 4 3 4 4 4 4 4 4 3 3 3 3 2 2 2 2 2 3 3 2 2 1 1 2 2 1 2 4 3 3 3
6 5 5 4 5 5 4 4 4 4 4 4 3 3 3 2 2 3 3 3 3 3 3 2 2 2 2 2 2 2 3 2 2 1 2 3 3 3 3 4 4 3 3
6 6 5 5 4 4 4 3 3 3 3 3 3 3 2 2 2 2 2 2 3 3 3 3 2 2 3 2 2 2 2 2 2 2 2 2 3 3 3 4 4 4 4
6 5 5 5 4 4 3 3 2 2 2 2 2 2 2 2 2 2 2 2 2 2 2 2 2 3 3 3 3 3 2 1 0 1 1 2 2 3 3 4 4 5 5
6 6 5 5 5 4 3 3 2 2 2 2 2 2 3 3 3 2 2 2 2 2 2 2 1 2 2 3 3 2 1 1 1 1 1 1 2 3 4 4 4 4 4
7 6 5 5 5 4 3 2 2 1 2 1 1 2 2 3 3 2 2 2 2 3 2 2 2 1 1 1 2 2 2 2 2 2 2 2 2 3 4 3 4 5 5
7 6 5 5 5 4 4 3 2 2 2 2 2 2 3 3 2 2 2 2 2 2 2 2 2 1 1 1 2 1 2 2 3 3 3 2 3 4 4 4 4 6 6
7 6 5 5 5 5 4 3 3 2 2 2 3 3 3 2 2 2 2 2 2 2 1 2 2 1 1 1 1 1 1 1 2 3 3 3 4 5 5 4 5 6 6
7 7 6 5 5 4 4 3 3 3 3 3 3 2 2 3 2 2 2 2 2 1 1 1 1 1 1 1 1 1 1 1 2 3 3 4 4 4 5 5 5 6 7
7 7 6 5 4 4 4 3 3 3 3 3 2 2 3 2 2 2 1 2 1 1 1 2 2 1 1 1 1 1 2 2 2 3 4 4 4 4 4 5 5 6 6
7 7 6 5 4 4 4 4 3 3 3 3 3 3 2 2 2 1 1 1 1 1 1 1 1 1 1 0 1 1 2 2 3 3 4 4 3 4 4 5 5 5 5
7 7 6 6 5 4 4 4 3 3 3 3 2 2 1 2 2 1 1 1 1 1 1 1 1 0 0 0 1 2 3 3 3 3 3 3 3 4 4 4 5 5 5
7 7 6 6 6 5 4 4 4 3 2 2 2 2 1 1 2 1 1 1 1 0 0 0 1 1 0 1 1 2 3 3 3 2 3 3 3 4 4 5 5 5 5
7 7 7 7 6 5 4 3 3 3 2 1 1 1 1 1 2 1 1 1 0 0 0 1 1 1 1 1 1 2 3 3 2 2 3 3 3 4 4 5 5 5 5
7 8 8 6 5 5 4 3 3 2 2 2 2 1 1 1 1 2 1 1 1 1 1 0 0 2 2 2 2 3 3 4 3 3 4 4 4 4 4 5 5 5 5
7 7 7 6 5 5 5 4 3 2 2 2 2 1 1 1 1 0 1 1 0 1 1 1 1 2 2 3 3 3 3 4 4 4 4 4 4 4 4 5 5 6 6
7 7 6 6 5 5 5 5 4 3 3 3 2 1 1 1 1 1 1 2 2 1 2 2 2 2 3 3 4 4 3 4 4 4 5 5 5 4 5 5 6 6 7
6 7 6 6 6 6 5 5 5 4 3 3 3 2 2 2 2 2 2 3 3 3 3 3 3 4 4 4 4 4 4 5 5 5 5 6 6 6 6 6 7 7 8
Wind_Direction
107 103 107 106 107 113 115 116 113 112 115 110 105 110 117 118 113 118 121 127 130 126 123 116 117 110 107 115 121 118 106 115 118 157 141 91 180 179 163 156 165 157 156
110 107 111 118 122 126 130 125 114 118 121 110 104 117 122 122 121 123 125 129 134 130 133 132 128 120 110 109 115 125 111 122 117 142 108 41 158 175 173 164 172 176 175
108 110 118 125 129 135 142 141 125 118 118 112 102 107 114 115 117 128 134 133 133 131 130 134 133 128 117 112 117 122 107 109 109 100 76 92 128 155 175 179 180 175 175
105 112 125 129 139 142 151 150 136 126 119 115 107 106 108 113 112 128 136 132 130 135 133 132 135 132 122 107 108 108 100 108 126 117 96 83 101 143 170 176 174 161 162
107 113 121 132 144 147 147 143 137 130 125 118 113 113 113 120 123 127 122 120 119 121 125 128 133 128 125 118 118 112 106 106 130 124 105 93 93 129 159 170 174 172 167
110 117 128 132 141 144 144 141 137 136 133 122 109 118 124 131 128 123 113 117 114 116 123 131 136 128 131 130 128 122 110 105 108 104 95 97 123 154 159 166 171 168 173
102 114 127 133 141 144 144 139 138 140 135 122 113 120 129 130 129 124 120 123 122 127 128 129 132 126 142 149 136 131 122 122 118 121 114 123 151 170 151 162 173 171 177
99 108 119 129 129 132 138 137 134 130 125 123 118 119 124 128 135 128 129 133 126 131 132 137 140 136 136 152 145 139 146 161 152 151 155 156 173 181 165 157 167 174 178
100 109 114 118 126 126 133 131 128 122 124 124 125 125 126 127 138 139 139 139 136 137 131 144 137 144 159 172 178 168 182 200 193 201 218 215 208 217 207 173 176 186 189
93 99 102 109 119 126 129 132 131 126 120 122 131 128 135 142 139 147 147 149 147 144 146 155 153 159 153 155 173 168 183 216 227 229 228 225 225 228 217 194 188 191 201
88 93 96 103 114 118 123 130 137 134 122 123 125 123 131 141 143 148 143 149 164 160 161 175 192 194 180 160 165 173 191 214 203 231 239 238 240 228 197 198 205 205 220
85 86 91 99 107 111 116 120 126 123 117 121 123 130 145 163 170 160 160 166 170 169 169 174 201 208 197 182 185 192 213 238 322 301 268 247 245 252 245 221 226 227 238
88 86 90 99 102 102 107 108 112 108 100 106 123 143 145 156 165 166 161 166 156 158 161 167 176 193 193 195 199 213 239 280 285 276 281 275 280 270 255 241 243 239 239
84 83 88 95 94 96 101 104 102 85 70 94 132 145 148 153 158 165 165 163 158 166 175 177 172 171 217 231 243 235 244 265 271 269 253 273 284 277 256 255 255 249 245
74 74 77 83 82 87 91 92 90 84 81 100 128 143 150 159 158 169 170 158 141 160 181 197 204 194 204 213 219 229 253 262 276 263 256 273 276 276 269 276 270 261 260
65 66 69 74 74 78 80 81 91 90 87 98 105 112 120 128 123 107 121 145 133 148 206 206 203 184 180 206 240 278 286 264 272 261 262 269 271 274 273 278 284 279 264
53 52 57 65 68 68 72 78 90 83 83 86 89 100 106 108 103 106 114 115 127 158 196 173 187 184 199 225 261 296 291 280 262 274 268 267 269 270 276 279 283 284 275
45 46 52 62 62 60 65 73 77 73 79 85 85 96 115 118 110 115 113 105 97 134 178 173 176 183 204 239 282 306 311 297 282 283 282 282 274 272 276 279 282 282 287
44 46 49 54 56 63 70 77 82 85 83 86 88 96 111 113 117 119 104 104 95 113 156 175 189 182 181 150 331 312 321 313 300 301 297 292 281 281 282 282 283 281 286
43 46 47 43 57 67 71 81 86 95 96 89 81 86 111 130 131 133 118 83 74 110 176 157 177 164 178 288 324 324 311 297 297 307 319 310 298 292 290 283 288 283 278
39 42 42 44 62 63 67 76 78 84 96 88 71 74 94 138 128 130 114 127 118 24 175 270 269 284 318 322 331 333 322 305 307 306 324 319 309 300 294 293 293 290 291
32 33 34 44 53 51 55 67 73 75 64 43 70 64 81 121 131 125 149 182 228 177 323 359 299 296 310 326 334 332 327 336 330 315 320 313 312 307 300 298 297 295 297
25 25 26 37 40 37 38 50 60 55 48 46 42 53 72 144 151 169 190 188 125 96 64 49 302 305 310 316 319 324 321 321 328 329 328 316 307 310 309 306 301 301 302
13 14 21 28 29 25 27 27 33 28 23 17 15 343 233 209 181 189 229 134 98 57 21 2 325 318 319 324 323 326 318 319 325 328 329 318 300 299 302 301 298 302 302
2 2 10 14 13 10 12 10 9 14 17 9 0 325 300 281 284 265 274 270 278 311 343 329 315 312 329 341 338 335 324 323 322 325 325 320 314 306 304 302 306 304 302
348 350 359 2 2 358 353 353 353 354 353 358 358 339 324 303 296 277 273 272 280 288 308 319 313 307 316 321 318 318 316 320 324 320 318 317 310 302 298 298 302 303 302
Height
5883 5883 5883 5883 5883 5883 5883 5884 5884 5883 5883 5884 5883 5883 5883 5883 5883 5883 5882 5882 5882 5882 5883 5883 5884 5884 5884 5885 5885 5885 5884 5884 5884 5884 5883 5883 5882 5883 5884 5885 5886 5886 5887
5884 5883 5884 5883 5883 5884 5884 5884 5884 5884 5884 5884 5884 5883 5883 5883 5883 5883 5883 5883 5883 5883 5884 5884 5885 5885 5885 5885 5885 5885 5885 5885 5885 5884 5884 5883 5881 5882 5883 5885 5886 5887 5888
5884 5884 5884 5884 5884 5884 5885 5885 5885 5885 5885 5885 5885 5884 5884 5884 5883 5883 5883 5883 5884 5884 5885 5885 5885 5886 5886 5886 5886 5886 5886 5886 5886 5885 5884 5883 5881 5881 5883 5885 5886 5887 5888
5885 5885 5885 5885 5885 5885 5886 5886 5886 5886 5886 5886 5885 5885 5885 5884 5884 5883 5884 5884 5884 5885 5886 5886 5886 5887 5887 5887 5887 5887 5887 5886 5886 5886 5885 5884 5883 5883 5884 5885 5886 5887 5888
5885 5885 5885 5885 5885 5886 5886 5886 5886 5886 5886 5886 5886 5886 5885 5885 5884 5884 5885 5885 5886 5887 5887 5887 5887 5887 5887 5887 5887 5887 5887 5887 5887 5887 5886 5886 5885 5885 5885 5886 5886 5887 5888
5885 5886 5886 5886 5886 5886 5887 5887 5887 5887 5887 5887 5886 5886 5886 5885 5886 5885 5886 5887 5887 5887 5888 5888 5888 5888 5888 5888 5888 5888 5888 5888 5888 5888 5887 5887 5887 5887 5887 5887 5888 5888 5889
5886 5886 5887 5887 5887 5887 5887 5888 5888 5888 5888 5887 5887 5887 5886 5886 5887 5887 5887 5888 5888 5888 5888 5888 5888 5888 5888 5888 5888 5888 5888 5888 5888 5888 5888 5888 5888 5887 5888 5888 5888 5889 5889
5887 5887 5887 5887 5888 5888 5888 5888 5888 5888 5888 5888 5888 5888 5888 5887 5887 5888 5888 5888 5889 5889 5888 5888 5888 5888 5888 5888 5888 5889 5889 5889 5889 5889 5889 5888 5888 5888 5888 5888 5889 5889 5889
5888 5888 5888 5888 5888 5888 5889 5889 5889 5889 5889 5888 5888 5888 5888 5888 5888 5888 5888 5889 5889 5889 5888 5888 5888 5889 5889 5888 5888 5889 5889 5889 5889 5889 5889 5888 5888 5888 5888 5888 5889 5889 5889
5889 5889 5889 5889 5889 5889 5889 5889 5889 5889 5889 5889 5889 5889 5889 5889 5888 5888 5889 5889 5889 5889 5889 5889 5889 5889 5889 5889 5889 5889 5889 5889 5889 5889 5889 5888 5888 5888 5888 5888 5889 5889 5889
5890 5890 5890 5890 5890 5890 5890 5890 5890 5890 5889 5889 5889 5889 5889 5889 5889 5889 5889 5889 5889 5889 5889 5889 5889 5889 5888 5888 5888 5889 5889 5888 5888 5888 5888 5888 5888 5888 5888 5888 5889 5889 5889
5892 5891 5891 5891 5891 5890 5890 5890 5890 5890 5890 5889 5889 5889 5889 5889 5889 5889 5889 5889 5889 5888 5888 5888 5888 5889 5889 5888 5888 5889 5889 5888 5889 5888 5888 5888 5888 5888 5888 5888 5888 5888 5888
5893 5893 5892 5892 5891 5891 5891 5890 5890 5890 5890 5889 5889 5889 5889 5889 5889 5889 5889 5889 5889 5889 5889 5888 5888 5888 5889 5889 5889 5889 5889 5888 5888 5888 5888 5888 5888 5888 5887 5887 5888 5887 5887
5895 5894 5893 5893 5892 5891 5891 5891 5890 5890 5890 5889 5889 5889 5889 5889 5889 5889 5889 5889 5889 5889 5889 5888 5888 5888 5889 5889 5889 5889 5889 5888 5888 5888 5888 5888 5888 5887 5886 5887 5887 5887 5886
5896 5895 5894 5893 5893 5892 5892 5891 5891 5890 5890 5889 5889 5889 5889 5889 5889 5889 5889 5889 5889 5889 5889 5889 5889 5889 5889 5889 5889 5888 5888 5888 5888 5887 5887 5887 5887 5887 5886 5886 5886 5886 5885
5897 5896 5895 5894 5893 5893 5892 5892 5891 5891 5890 5889 5889 5889 5889 5889 5889 5889 5889 5889 5889 5889 5889 5888 5889 5889 5889 5889 5889 5888 5888 5887 5887 5887 5886 5886 5886 5886 5886 5885 5885 5884 5884
5898 5896 5895 5895 5894 5893 5893 5892 5891 5891 5890 5890 5889 5889 5889 5889 5889 5889 5889 5889 5889 5889 5888 5888 5888 5888 5888 5888 5888 5888 5888 5887 5887 5886 5885 5885 5885 5885 5885 5885 5884 5884 5883
5899 5898 5896 5895 5895 5894 5893 5892 5892 5891 5890 5890 5890 5890 5889 5890 5890 5890 5889 5889 5889 5889 5888 5888 5888 5888 5888 5888 5888 5887 5887 5887 5886 5886 5885 5884 5884 5884 5884 5884 5883 5883 5883
5900 5898 5897 5896 5895 5894 5893 5893 5892 5891 5891 5890 5890 5890 5890 5890 5890 5890 5890 5889 5889 5889 5888 5888 5888 5888 5888 5888 5887 5887 5887 5886 5886 5886 5885 5884 5883 5883 5883 5883 5882 5882 5882
5901 5900 5898 5897 5896 5895 5894 5893 5892 5892 5891 5891 5891 5890 5890 5890 5890 5890 5890 5890 5889 5888 5888 5888 5888 5888 5888 5887 5887 5887 5886 5886 5885 5885 5884 5883 5883 5882 5882 5882 5882 5881 5881
5902 5900 5899 5898 5897 5896 5895 5894 5893 5892 5892 5892 5891 5891 5890 5890 5890 5890 5890 5890 5889 5889 5889 5888 5888 5888 5888 5887 5887 5886 5886 5885 5884 5884 5883 5883 5882 5882 5882 5881 5880 5880 5879
5903 5901 5900 5898 5897 5896 5895 5895 5894 5893 5892 5892 5891 5891 5890 5890 5890 5890 5890 5890 5889 5889 5889 5888 5888 5888 5888 5887 5887 5886 5885 5885 5884 5883 5883 5882 5881 5881 5881 5880 5879 5878 5878
5904 5902 5901 5899 5898 5897 5896 5895 5894 5894 5893 5892 5891 5891 5891 5890 5890 5890 5890 5889 5889 5889 5888 5888 5888 5888 5887 5887 5886 5886 5885 5884 5883 5883 5882 5881 5881 5880 5880 5879 5878 5878 5877
5905 5903 5902 5900 5899 5898 5897 5896 5895 5894 5893 5893 5892 5891 5891 5890 5890 5890 5889 5889 5889 5889 5888 5888 5887 5887 5887 5886 5886 5885 5885 5884 5883 5882 5882 5881 5880 5879 5879 5878 5878 5877 5876
5906 5904 5903 5901 5900 5898 5897 5897 5895 5894 5893 5892 5891 5891 5890 5890 5890 5890 5889 5889 5889 5888 5888 5888 5887 5887 5886 5886 5885 5885 5884 5883 5883 5882 5881 5880 5879 5878 5878 5877 5876 5876 5875
5906 5905 5903 5902 5900 5899 5898 5897 5895 5894 5893 5892 5891 5891 5890 5890 5890 5889 5889 5889 5888 5888 5888 5887 5887 5886 5886 5885 5885 5884 5883 5882 5882 5881 5880 5879 5878 5877 5876 5876 5875 5874 5873